Delta Virtual Airport Information Service

Orlando International Airport

ICAO: KMCO Country: United States
Latitude: 28.4294 Longitude: -81.3089
Latest Arrival : FFT1122 (KMEM-KMCO) Latest Departure : DALJUMP (KMCO-KATL)


WX CaptureLIVE
Data provided by noaa.gov | Fetched at 18:39:50

METAR : KMCO 172153Z 27008KT 10SM FEW041 FEW100 FEW200 BKN250 33/23 A2990 RMK AO2 SLP125 T03280228

TAF : KMCO 172153Z 27008KT 10SM FEW041 FEW100 FEW200 BKN250 33/23 A2990 RMK AO2 SLP125 T03280228


Runway Data for KMCO
Data provided by openaviationdata.com

Runway ID Mag Var Hdg Length Elevation Surface ILS Freq ILS Id ILS Slope
17L -5 184° 9025 ft 96 ft Concrete 110.95 IARK 3
17R -5 184° 10027 ft 96 ft Concrete 111.75 IDIZ 3
18L -5 184° 12037 ft 96 ft Asphalt -- -- --
18R -5 184° 12037 ft 96 ft Concrete 111.9 ITFE 3
35L -5 10027 ft 96 ft Concrete 110.5 IDDO 3
35R -5 9025 ft 96 ft Concrete 111.15 ICER 3
36L -5 12037 ft 96 ft Concrete -- -- --
36R -5 12037 ft 96 ft Asphalt 110.7 IOJP 3

Orlando International Airport, United States
Use only for reference purposes



Not for navigational purposes.